Saint Bonnet de Bellac- Haute Vienne - France
Donnes mto: mardi, 28/02/2012
Date Horaire Temp. E. Hum. E. P.atmo. Pluie Vent Direction Direction Ensoleilleme Solaire P. de rose Temp au vent Rafales
28/02/2012 00:00 2,3 C 81 % 1025,4 hPa 0,0 mm 0,0 km/h (0 Bft) E 90 0 min 0 W/m -0,6 C 2,3 C 0,0 km/h (0 Bft)
28/02/2012 00:10 2,1 C 81 % 1025,3 hPa 0,0 mm 0,0 km/h (0 Bft) E 90 0 min 0 W/m -0,8 C 2,1 C 0,0 km/h (0 Bft)
28/02/2012 00:20 1,9 C 81 % 1025,4 hPa 0,0 mm 0,0 km/h (0 Bft) E 90 0 min 0 W/m -1,0 C 1,9 C 0,0 km/h (0 Bft)
28/02/2012 00:30 1,8 C 82 % 1025,2 hPa 0,0 mm 0,0 km/h (0 Bft) E 90 0 min 0 W/m -0,9 C 1,8 C 0,0 km/h (0 Bft)
28/02/2012 00:40 1,5 C 82 % 1025,3 hPa 0,0 mm 0,0 km/h (0 Bft) E 90 0 min 0 W/m -1,2 C 1,5 C 0,0 km/h (0 Bft)
28/02/2012 00:50 1,3 C 82 % 1025,2 hPa 0,0 mm 0,0 km/h (0 Bft) E 90 0 min 0 W/m -1,4 C 1,3 C 0,0 km/h (0 Bft)
28/02/2012 01:00 1,1 C 84 % 1025,1 hPa 0,0 mm 0,0 km/h (0 Bft) E 90 0 min 0 W/m -1,3 C 1,1 C 0,0 km/h (0 Bft)
28/02/2012 01:10 0,8 C 84 % 1025,2 hPa 0,0 mm 0,0 km/h (0 Bft) E 90 0 min 0 W/m -1,6 C 0,8 C 0,0 km/h (0 Bft)
28/02/2012 01:20 0,6 C 85 % 1025,2 hPa 0,0 mm 0,0 km/h (0 Bft) E 90 0 min 0 W/m -1,6 C 0,6 C 0,0 km/h (0 Bft)
28/02/2012 01:30 0,5 C 85 % 1025,1 hPa 0,0 mm 0,0 km/h (0 Bft) E 90 0 min 0 W/m -1,7 C 0,5 C 0,0 km/h (0 Bft)
28/02/2012 01:40 0,6 C 85 % 1025,1 hPa 0,0 mm 0,0 km/h (0 Bft) E-SE 112 0 min 0 W/m -1,6 C 0,6 C 0,0 km/h (0 Bft)
28/02/2012 01:50 0,8 C 85 % 1025,1 hPa 0,0 mm 0,0 km/h (0 Bft) E-SE 112 0 min 0 W/m -1,4 C 0,8 C 0,0 km/h (0 Bft)
28/02/2012 02:02 0,9 C 86 % 1025,0 hPa 0,0 mm 0,0 km/h (0 Bft) E-SE 112 0 min 0 W/m -1,2 C 0,9 C 0,0 km/h (0 Bft)
28/02/2012 02:10 0,9 C 85 % 1025,1 hPa 0,0 mm 1,1 km/h (1 Bft) E-SE 112 0 min 0 W/m -1,3 C 0,9 C 3,6 km/h (1 Bft)
28/02/2012 02:20 0,9 C 86 % 1024,9 hPa 0,0 mm 1,4 km/h (1 Bft) E-NE 67 0 min 0 W/m -1,2 C 0,9 C 3,2 km/h (1 Bft)
28/02/2012 02:30 1,0 C 86 % 1025,1 hPa 0,0 mm 0,0 km/h (0 Bft) E-SE 112 0 min 0 W/m -1,1 C 1,0 C 0,0 km/h (0 Bft)
28/02/2012 02:40 0,9 C 86 % 1025,1 hPa 0,0 mm 0,4 km/h (0 Bft) E 90 0 min 0 W/m -1,2 C 0,9 C 3,2 km/h (1 Bft)
28/02/2012 02:50 0,8 C 86 % 1025,1 hPa 0,0 mm 0,0 km/h (0 Bft) E 90 0 min 0 W/m -1,3 C 0,8 C 0,0 km/h (0 Bft)
28/02/2012 03:00 0,6 C 86 % 1024,9 hPa 0,0 mm 0,0 km/h (0 Bft) E 90 0 min 0 W/m -1,5 C 0,6 C 0,0 km/h (0 Bft)
28/02/2012 03:10 0,4 C 87 % 1024,8 hPa 0,0 mm 0,0 km/h (0 Bft) E 90 0 min 0 W/m -1,5 C 0,4 C 0,0 km/h (0 Bft)
28/02/2012 03:20 0,1 C 87 % 1024,6 hPa 0,0 mm 0,0 km/h (0 Bft) E 90 0 min 0 W/m -1,8 C 0,1 C 0,0 km/h (0 Bft)
28/02/2012 03:30 -0,2 C 87 % 1024,6 hPa 0,0 mm 0,0 km/h (0 Bft) E 90 0 min 0 W/m -2,1 C -0,2 C 0,0 km/h (0 Bft)
28/02/2012 03:40 -0,5 C 87 % 1024,5 hPa 0,0 mm 0,0 km/h (0 Bft) E 90 0 min 0 W/m -2,4 C -0,5 C 0,0 km/h (0 Bft)
28/02/2012 03:50 -0,8 C 87 % 1024,6 hPa 0,0 mm 0,0 km/h (0 Bft) E 90 0 min 0 W/m -2,7 C -0,8 C 0,0 km/h (0 Bft)
28/02/2012 04:00 -1,1 C 87 % 1024,4 hPa 0,0 mm 0,0 km/h (0 Bft) E 90 0 min 0 W/m -3,0 C -1,1 C 0,0 km/h (0 Bft)
28/02/2012 04:10 -1,1 C 87 % 1024,4 hPa 0,0 mm 0,0 km/h (0 Bft) E 90 0 min 0 W/m -3,0 C -1,1 C 0,0 km/h (0 Bft)
28/02/2012 04:20 -1,1 C 87 % 1024,4 hPa 0,0 mm 0,0 km/h (0 Bft) E 90 0 min 0 W/m -3,0 C -1,1 C 0,0 km/h (0 Bft)
28/02/2012 04:30 -0,9 C 88 % 1024,4 hPa 0,0 mm 0,0 km/h (0 Bft) E 90 0 min 0 W/m -2,6 C -0,9 C 0,0 km/h (0 Bft)
28/02/2012 04:40 -0,9 C 88 % 1024,3 hPa 0,0 mm 0,0 km/h (0 Bft) E 90 0 min 0 W/m -2,6 C -0,9 C 0,0 km/h (0 Bft)
28/02/2012 04:50 -1,1 C 89 % 1024,4 hPa 0,0 mm 0,0 km/h (0 Bft) S-SE 157 0 min 0 W/m -2,7 C -1,1 C 0,0 km/h (0 Bft)
28/02/2012 05:00 -1,1 C 88 % 1024,2 hPa 0,0 mm 0,0 km/h (0 Bft) S-SE 157 0 min 0 W/m -2,8 C -1,1 C 0,0 km/h (0 Bft)
28/02/2012 05:10 -1,2 C 89 % 1024,1 hPa 0,0 mm 0,0 km/h (0 Bft) S-SE 157 0 min 0 W/m -2,8 C -1,2 C 0,0 km/h (0 Bft)
28/02/2012 05:20 -1,2 C 89 % 1024,1 hPa 0,0 mm 0,0 km/h (0 Bft) SE 135 0 min 0 W/m -2,8 C -1,2 C 0,0 km/h (0 Bft)
28/02/2012 05:30 -1,2 C 89 % 1024,1 hPa 0,0 mm 0,0 km/h (0 Bft) E-NE 67 0 min 0 W/m -2,8 C -1,2 C 0,0 km/h (0 Bft)
28/02/2012 05:40 -1,2 C 89 % 1024,2 hPa 0,0 mm 0,0 km/h (0 Bft) E 90 0 min 0 W/m -2,8 C -1,2 C 0,0 km/h (0 Bft)
28/02/2012 05:50 -1,2 C 89 % 1024,2 hPa 0,0 mm 0,0 km/h (0 Bft) E 90 0 min 0 W/m -2,8 C -1,2 C 0,0 km/h (0 Bft)
28/02/2012 06:00 -1,1 C 89 % 1024,2 hPa 0,0 mm 0,0 km/h (0 Bft) E-SE 112 0 min 0 W/m -2,7 C -1,1 C 0,0 km/h (0 Bft)
28/02/2012 06:10 -0,9 C 89 % 1024,3 hPa 0,0 mm 0,4 km/h (0 Bft) E-SE 112 0 min 0 W/m -2,5 C -0,9 C 0,4 km/h (0 Bft)
28/02/2012 06:20 -0,7 C 89 % 1024,5 hPa 0,0 mm 1,8 km/h (1 Bft) E-SE 112 0 min 0 W/m -2,3 C -0,7 C 4,0 km/h (1 Bft)
28/02/2012 06:30 -0,6 C 89 % 1024,4 hPa 0,0 mm 0,0 km/h (0 Bft) E-SE 112 0 min 0 W/m -2,2 C -0,6 C 0,0 km/h (0 Bft)
28/02/2012 06:40 -0,7 C 89 % 1024,4 hPa 0,0 mm 0,0 km/h (0 Bft) E 90 0 min 0 W/m -2,3 C -0,7 C 0,0 km/h (0 Bft)
28/02/2012 06:50 -0,9 C 89 % 1024,6 hPa 0,0 mm 0,0 km/h (0 Bft) SE 135 0 min 0 W/m -2,5 C -0,9 C 0,0 km/h (0 Bft)
28/02/2012 07:00 -0,9 C 90 % 1024,7 hPa 0,0 mm 0,0 km/h (0 Bft) E 90 0 min 0 W/m -2,3 C -0,9 C 0,0 km/h (0 Bft)
28/02/2012 07:10 -0,9 C 90 % 1024,7 hPa 0,0 mm 0,0 km/h (0 Bft) E 90 0 min 0 W/m -2,3 C -0,9 C 3,2 km/h (1 Bft)
28/02/2012 07:20 -1,1 C 90 % 1024,8 hPa 0,0 mm 0,0 km/h (0 Bft) E-NE 67 0 min 0 W/m -2,5 C -1,1 C 0,0 km/h (0 Bft)
28/02/2012 07:30 -1,2 C 90 % 1024,9 hPa 0,0 mm 0,0 km/h (0 Bft) E-SE 112 0 min 0 W/m -2,6 C -1,2 C 0,0 km/h (0 Bft)
28/02/2012 07:40 -1,4 C 90 % 1025,1 hPa 0,0 mm 0,0 km/h (0 Bft) E-SE 112 0 min 0 W/m -2,8 C -1,4 C 0,0 km/h (0 Bft)
28/02/2012 07:50 -1,2 C 90 % 1025,2 hPa 0,0 mm 1,8 km/h (1 Bft) N 360 2 min 0 W/m -2,6 C -1,2 C 4,0 km/h (1 Bft)
28/02/2012 08:00 -0,9 C 90 % 1025,2 hPa 0,0 mm 1,8 km/h (1 Bft) E-SE 112 2 min 0 W/m -2,3 C -0,9 C 1,8 km/h (1 Bft)
28/02/2012 08:10 -0,7 C 90 % 1024,9 hPa 0,0 mm 1,8 km/h (1 Bft) E-NE 67 2 min 0 W/m -2,1 C -0,7 C 1,8 km/h (1 Bft)
28/02/2012 08:20 -0,6 C 90 % 1024,8 hPa 0,0 mm 0,0 km/h (0 Bft) E 90 2 min 0 W/m -2,0 C -0,6 C 0,0 km/h (0 Bft)
28/02/2012 08:30 -0,6 C 90 % 1024,9 hPa 0,0 mm 0,0 km/h (0 Bft) E 90 2 min 0 W/m -2,0 C -0,6 C 0,0 km/h (0 Bft)
28/02/2012 08:40 -0,1 C 91 % 1024,9 hPa 0,0 mm 0,0 km/h (0 Bft) E 90 2 min 0 W/m -1,4 C -0,1 C 0,0 km/h (0 Bft)
28/02/2012 08:50 0,8 C 92 % 1025,0 hPa 0,0 mm 0,0 km/h (0 Bft) E 90 2 min 0 W/m -0,3 C 0,8 C 0,0 km/h (0 Bft)
28/02/2012 09:00 1,7 C 92 % 1024,9 hPa 0,0 mm 0,0 km/h (0 Bft) E 90 2 min 0 W/m 0,5 C 1,7 C 0,0 km/h (0 Bft)
28/02/2012 09:10 2,6 C 91 % 1024,9 hPa 0,0 mm 0,4 km/h (0 Bft) E-SE 112 2 min 0 W/m 1,3 C 2,6 C 3,2 km/h (1 Bft)
28/02/2012 09:20 3,4 C 89 % 1025,2 hPa 0,0 mm 0,0 km/h (0 Bft) E-SE 112 2 min 0 W/m 1,8 C 3,4 C 0,0 km/h (0 Bft)
28/02/2012 09:30 4,4 C 88 % 1025,0 hPa 0,0 mm 0,0 km/h (0 Bft) N-NE 22 2 min 0 W/m 2,6 C 4,4 C 0,0 km/h (0 Bft)
28/02/2012 09:40 5,4 C 86 % 1025,0 hPa 0,0 mm 0,0 km/h (0 Bft) SE 135 2 min 0 W/m 3,3 C 5,4 C 0,0 km/h (0 Bft)
28/02/2012 09:50 6,3 C 85 % 1025,0 hPa 0,0 mm 0,0 km/h (0 Bft) SE 135 2 min 0 W/m 4,0 C 6,3 C 0,0 km/h (0 Bft)
28/02/2012 10:00 7,2 C 81 % 1025,0 hPa 0,0 mm 1,1 km/h (1 Bft) E 90 2 min 0 W/m 4,2 C 7,2 C 1,1 km/h (1 Bft)
28/02/2012 10:10 7,8 C 79 % 1025,2 hPa 0,0 mm 0,7 km/h (0 Bft) E-NE 67 2 min 0 W/m 4,4 C 7,8 C 2,9 km/h (1 Bft)
28/02/2012 10:20 8,5 C 77 % 1025,2 hPa 0,0 mm 0,4 km/h (0 Bft) E-NE 67 2 min 0 W/m 4,7 C 8,5 C 3,2 km/h (1 Bft)
28/02/2012 10:30 9,1 C 75 % 1025,2 hPa 0,0 mm 1,4 km/h (1 Bft) E 90 2 min 0 W/m 4,9 C 9,1 C 3,6 km/h (1 Bft)
28/02/2012 10:40 9,8 C 72 % 1025,2 hPa 0,0 mm 2,2 km/h (1 Bft) E-NE 67 2 min 0 W/m 5,0 C 9,8 C 2,2 km/h (1 Bft)
28/02/2012 10:50 10,3 C 72 % 1025,1 hPa 0,0 mm 2,5 km/h (1 Bft) N-NE 22 2 min 0 W/m 5,5 C 10,3 C 4,3 km/h (1 Bft)
28/02/2012 11:00 10,9 C 70 % 1025,1 hPa 0,0 mm 4,0 km/h (1 Bft) N-NE 22 2 min 0 W/m 5,6 C 10,9 C 4,3 km/h (1 Bft)
28/02/2012 11:10 11,5 C 69 % 1025,1 hPa 0,0 mm 4,0 km/h (1 Bft) N-NE 22 2 min 0 W/m 6,0 C 11,5 C 6,5 km/h (2 Bft)
28/02/2012 11:20 12,1 C 68 % 1025,0 hPa 0,0 mm 3,6 km/h (1 Bft) N 360 2 min 0 W/m 6,4 C 12,1 C 6,5 km/h (2 Bft)
28/02/2012 11:30 12,6 C 65 % 1025,1 hPa 0,0 mm 1,4 km/h (1 Bft) NE 45 2 min 0 W/m 6,2 C 12,6 C 4,3 km/h (1 Bft)
28/02/2012 11:40 13,1 C 63 % 1025,1 hPa 0,0 mm 5,8 km/h (2 Bft) E-NE 67 2 min 0 W/m 6,2 C 13,1 C 9,7 km/h (2 Bft)
28/02/2012 11:50 13,5 C 63 % 1025,1 hPa 0,0 mm 6,5 km/h (2 Bft) NE 45 2 min 0 W/m 6,6 C 13,5 C 6,5 km/h (2 Bft)
28/02/2012 12:00 13,9 C 62 % 1025,0 hPa 0,0 mm 3,6 km/h (1 Bft) N-NE 22 2 min 0 W/m 6,7 C 13,9 C 6,5 km/h (2 Bft)
28/02/2012 12:10 14,2 C 61 % 1025,1 hPa 0,0 mm 6,1 km/h (2 Bft) NE 45 2 min 0 W/m 6,8 C 14,2 C 7,6 km/h (2 Bft)
28/02/2012 12:20 14,5 C 61 % 1025,2 hPa 0,0 mm 6,1 km/h (2 Bft) NE 45 2 min 0 W/m 7,1 C 14,5 C 8,3 km/h (2 Bft)
28/02/2012 12:30 14,8 C 59 % 1025,3 hPa 0,0 mm 5,4 km/h (2 Bft) NE 45 2 min 0 W/m 6,9 C 14,8 C 5,4 km/h (2 Bft)
28/02/2012 12:40 14,9 C 59 % 1025,3 hPa 0,0 mm 5,0 km/h (1 Bft) NE 45 2 min 0 W/m 7,0 C 14,9 C 7,6 km/h (2 Bft)
28/02/2012 12:50 15,1 C 59 % 1025,4 hPa 0,0 mm 8,3 km/h (2 Bft) N-NE 22 2 min 0 W/m 7,1 C 15,1 C 11,5 km/h (2 Bft)
28/02/2012 13:00 15,3 C 59 % 1025,2 hPa 0,0 mm 6,1 km/h (2 Bft) N-NE 22 2 min 0 W/m 7,3 C 15,3 C 10,4 km/h (2 Bft)
28/02/2012 13:10 15,4 C 57 % 1025,1 hPa 0,0 mm 9,4 km/h (2 Bft) N-NE 22 2 min 0 W/m 6,9 C 15,4 C 13,0 km/h (3 Bft)
28/02/2012 13:20 15,3 C 58 % 1025,1 hPa 0,0 mm 8,6 km/h (2 Bft) E-NE 67 2 min 0 W/m 7,1 C 15,3 C 10,8 km/h (2 Bft)
28/02/2012 13:30 15,5 C 57 % 1025,1 hPa 0,0 mm 5,8 km/h (2 Bft) N-NE 22 2 min 0 W/m 7,0 C 15,5 C 8,3 km/h (2 Bft)
28/02/2012 13:40 15,6 C 57 % 1024,9 hPa 0,0 mm 8,3 km/h (2 Bft) N 360 2 min 0 W/m 7,1 C 15,6 C 9,4 km/h (2 Bft)
28/02/2012 13:50 15,6 C 57 % 1024,8 hPa 0,0 mm 7,6 km/h (2 Bft) NE 45 2 min 0 W/m 7,1 C 15,6 C 7,9 km/h (2 Bft)
28/02/2012 14:00 15,5 C 56 % 1024,7 hPa 0,0 mm 2,5 km/h (1 Bft) NE 45 2 min 0 W/m 6,8 C 15,5 C 6,1 km/h (2 Bft)
28/02/2012 14:10 15,6 C 57 % 1024,6 hPa 0,0 mm 4,7 km/h (1 Bft) N-NE 22 2 min 0 W/m 7,1 C 15,6 C 9,4 km/h (2 Bft)
28/02/2012 14:20 15,7 C 56 % 1024,3 hPa 0,0 mm 4,7 km/h (1 Bft) E-NE 67 2 min 0 W/m 6,9 C 15,7 C 4,7 km/h (1 Bft)
28/02/2012 14:30 15,9 C 55 % 1024,0 hPa 0,0 mm 5,8 km/h (2 Bft) E-NE 67 2 min 0 W/m 6,9 C 15,9 C 6,1 km/h (2 Bft)
28/02/2012 14:40 16,1 C 55 % 1023,9 hPa 0,0 mm 5,4 km/h (2 Bft) NE 45 2 min 0 W/m 7,1 C 16,1 C 8,6 km/h (2 Bft)
28/02/2012 14:50 16,2 C 55 % 1023,7 hPa 0,0 mm 3,6 km/h (1 Bft) E-NE 67 2 min 0 W/m 7,2 C 16,2 C 6,8 km/h (2 Bft)
28/02/2012 15:00 16,1 C 55 % 1023,5 hPa 0,0 mm 2,9 km/h (1 Bft) N-NE 22 2 min 0 W/m 7,1 C 16,1 C 6,8 km/h (2 Bft)
28/02/2012 15:10 16,0 C 55 % 1023,5 hPa 0,0 mm 3,6 km/h (1 Bft) N 360 2 min 0 W/m 7,0 C 16,0 C 9,0 km/h (2 Bft)
28/02/2012 15:20 15,9 C 55 % 1023,3 hPa 0,0 mm 4,0 km/h (1 Bft) N 360 2 min 0 W/m 6,9 C 15,9 C 6,5 km/h (2 Bft)
28/02/2012 15:30 15,9 C 56 % 1023,3 hPa 0,0 mm 5,8 km/h (2 Bft) N-NE 22 2 min 0 W/m 7,1 C 15,9 C 8,3 km/h (2 Bft)
28/02/2012 15:40 15,8 C 56 % 1023,1 hPa 0,0 mm 7,2 km/h (2 Bft) N-NE 22 2 min 0 W/m 7,0 C 15,8 C 9,0 km/h (2 Bft)
28/02/2012 15:50 15,6 C 56 % 1023,1 hPa 0,0 mm 5,8 km/h (2 Bft) NE 45 2 min 0 W/m 6,9 C 15,6 C 7,2 km/h (2 Bft)
28/02/2012 16:00 15,5 C 57 % 1022,9 hPa 0,0 mm 4,3 km/h (1 Bft) NE 45 2 min 0 W/m 7,0 C 15,5 C 7,2 km/h (2 Bft)
28/02/2012 16:10 15,5 C 57 % 1022,8 hPa 0,0 mm 3,2 km/h (1 Bft) NE 45 2 min 0 W/m 7,0 C 15,5 C 6,5 km/h (2 Bft)
28/02/2012 16:20 15,4 C 57 % 1022,8 hPa 0,0 mm 6,1 km/h (2 Bft) N-NE 22 2 min 0 W/m 6,9 C 15,4 C 8,3 km/h (2 Bft)
28/02/2012 16:30 15,3 C 58 % 1022,7 hPa 0,0 mm 2,2 km/h (1 Bft) N-NE 22 2 min 0 W/m 7,1 C 15,3 C 3,6 km/h (1 Bft)
28/02/2012 16:40 15,3 C 58 % 1022,7 hPa 0,0 mm 4,3 km/h (1 Bft) NE 45 2 min 0 W/m 7,1 C 15,3 C 6,1 km/h (2 Bft)
28/02/2012 16:50 15,2 C 58 % 1022,8 hPa 0,0 mm 5,4 km/h (2 Bft) N-NE 22 2 min 0 W/m 7,0 C 15,2 C 5,4 km/h (2 Bft)
28/02/2012 17:00 15,1 C 58 % 1022,9 hPa 0,0 mm 4,7 km/h (1 Bft) N-NE 22 2 min 0 W/m 6,9 C 15,1 C 10,8 km/h (2 Bft)
28/02/2012 17:10 14,9 C 58 % 1022,8 hPa 0,0 mm 7,2 km/h (2 Bft) N-NE 22 2 min 0 W/m 6,7 C 14,9 C 11,5 km/h (2 Bft)
28/02/2012 17:20 14,6 C 58 % 1022,9 hPa 0,0 mm 6,1 km/h (2 Bft) NE 45 2 min 0 W/m 6,4 C 14,6 C 11,5 km/h (2 Bft)
28/02/2012 17:30 14,4 C 59 % 1022,8 hPa 0,0 mm 5,4 km/h (2 Bft) N-NE 22 2 min 0 W/m 6,5 C 14,4 C 7,9 km/h (2 Bft)
28/02/2012 17:40 14,1 C 59 % 1022,8 hPa 0,0 mm 12,6 km/h (3 Bft) N 360 2 min 0 W/m 6,2 C 14,1 C 19,4 km/h (3 Bft)
28/02/2012 17:50 13,8 C 60 % 1022,8 hPa 0,0 mm 6,8 km/h (2 Bft) NE 45 2 min 0 W/m 6,2 C 13,8 C 10,8 km/h (2 Bft)
28/02/2012 18:00 13,6 C 61 % 1022,7 hPa 0,0 mm 6,5 km/h (2 Bft) N-NE 22 2 min 0 W/m 6,2 C 13,6 C 9,4 km/h (2 Bft)
28/02/2012 18:10 13,3 C 62 % 1022,6 hPa 0,0 mm 8,3 km/h (2 Bft) E-NE 67 2 min 0 W/m 6,2 C 13,3 C 12,2 km/h (2 Bft)
28/02/2012 18:20 12,8 C 62 % 1022,7 hPa 0,0 mm 6,5 km/h (2 Bft) N-NE 22 2 min 0 W/m 5,7 C 12,8 C 13,0 km/h (3 Bft)
28/02/2012 18:30 12,4 C 63 % 1022,7 hPa 0,0 mm 3,6 km/h (1 Bft) N 360 2 min 0 W/m 5,6 C 12,4 C 7,9 km/h (2 Bft)
28/02/2012 18:40 11,9 C 64 % 1022,7 hPa 0,0 mm 4,7 km/h (1 Bft) N-NE 22 0 min 0 W/m 5,3 C 11,9 C 8,6 km/h (2 Bft)
28/02/2012 18:50 11,5 C 65 % 1022,7 hPa 0,0 mm 6,5 km/h (2 Bft) N-NE 22 0 min 0 W/m 5,2 C 11,5 C 10,8 km/h (2 Bft)
28/02/2012 19:00 11,1 C 66 % 1022,7 hPa 0,0 mm 6,1 km/h (2 Bft) N-NE 22 0 min 0 W/m 5,0 C 11,1 C 8,6 km/h (2 Bft)
28/02/2012 19:10 10,8 C 67 % 1022,8 hPa 0,0 mm 6,1 km/h (2 Bft) N 360 0 min 0 W/m 4,9 C 10,8 C 6,1 km/h (2 Bft)
28/02/2012 19:20 10,5 C 68 % 1022,8 hPa 0,0 mm 2,2 km/h (1 Bft) N-NE 22 0 min 0 W/m 4,8 C 10,5 C 2,2 km/h (1 Bft)
28/02/2012 19:30 10,1 C 68 % 1022,8 hPa 0,0 mm 2,2 km/h (1 Bft) NE 45 0 min 0 W/m 4,5 C 10,1 C 4,3 km/h (1 Bft)
28/02/2012 19:40 9,8 C 69 % 1022,7 hPa 0,0 mm 0,0 km/h (0 Bft) NE 45 0 min 0 W/m 4,4 C 9,8 C 0,0 km/h (0 Bft)
28/02/2012 19:50 9,5 C 69 % 1022,7 hPa 0,0 mm 2,5 km/h (1 Bft) N-NE 22 0 min 0 W/m 4,1 C 9,5 C 4,3 km/h (1 Bft)
28/02/2012 20:00 9,3 C 70 % 1022,6 hPa 0,0 mm 0,7 km/h (0 Bft) N-NE 22 0 min 0 W/m 4,1 C 9,3 C 0,7 km/h (0 Bft)
28/02/2012 20:10 8,9 C 70 % 1022,7 hPa 0,0 mm 0,7 km/h (0 Bft) N-NE 22 0 min 0 W/m 3,7 C 8,9 C 3,6 km/h (1 Bft)
28/02/2012 20:20 8,7 C 71 % 1022,6 hPa 0,0 mm 1,4 km/h (1 Bft) N-NE 22 0 min 0 W/m 3,7 C 8,7 C 4,3 km/h (1 Bft)
28/02/2012 20:30 8,5 C 72 % 1022,5 hPa 0,0 mm 3,2 km/h (1 Bft) N-NE 22 0 min 0 W/m 3,7 C 8,5 C 4,3 km/h (1 Bft)
28/02/2012 20:40 8,4 C 72 % 1022,5 hPa 0,0 mm 0,0 km/h (0 Bft) E-NE 67 0 min 0 W/m 3,7 C 8,4 C 0,0 km/h (0 Bft)
28/02/2012 20:50 8,1 C 72 % 1022,6 hPa 0,0 mm 0,0 km/h (0 Bft) NE 45 0 min 0 W/m 3,4 C 8,1 C 0,0 km/h (0 Bft)
28/02/2012 21:00 7,8 C 73 % 1022,6 hPa 0,0 mm 0,7 km/h (0 Bft) NE 45 0 min 0 W/m 3,3 C 7,8 C 2,9 km/h (1 Bft)
28/02/2012 21:10 7,6 C 74 % 1022,6 hPa 0,0 mm 0,0 km/h (0 Bft) N-NE 22 0 min 0 W/m 3,3 C 7,6 C 0,0 km/h (0 Bft)
28/02/2012 21:20 7,6 C 75 % 1022,6 hPa 0,0 mm 1,4 km/h (1 Bft) N-NE 22 0 min 0 W/m 3,5 C 7,6 C 3,6 km/h (1 Bft)
28/02/2012 21:30 7,6 C 75 % 1022,7 hPa 0,0 mm 2,9 km/h (1 Bft) NE 45 0 min 0 W/m 3,5 C 7,6 C 2,9 km/h (1 Bft)
28/02/2012 21:40 7,5 C 75 % 1022,8 hPa 0,0 mm 0,0 km/h (0 Bft) NE 45 0 min 0 W/m 3,4 C 7,5 C 0,0 km/h (0 Bft)
28/02/2012 21:50 7,3 C 75 % 1022,8 hPa 0,0 mm 0,0 km/h (0 Bft) NE 45 0 min 0 W/m 3,2 C 7,3 C 0,0 km/h (0 Bft)
28/02/2012 22:00 7,1 C 76 % 1022,9 hPa 0,0 mm 1,4 km/h (1 Bft) E-NE 67 0 min 0 W/m 3,2 C 7,1 C 3,2 km/h (1 Bft)
28/02/2012 22:10 7,2 C 77 % 1022,8 hPa 0,0 mm 2,9 km/h (1 Bft) E-NE 67 0 min 0 W/m 3,4 C 7,2 C 3,6 km/h (1 Bft)
28/02/2012 22:20 7,3 C 77 % 1022,9 hPa 0,0 mm 1,1 km/h (1 Bft) NE 45 0 min 0 W/m 3,5 C 7,3 C 4,0 km/h (1 Bft)
28/02/2012 22:30 7,3 C 77 % 1022,8 hPa 0,0 mm 2,2 km/h (1 Bft) N-NE 22 0 min 0 W/m 3,5 C 7,3 C 4,3 km/h (1 Bft)
28/02/2012 22:40 7,2 C 77 % 1022,9 hPa 0,0 mm 0,0 km/h (0 Bft) N-NE 22 0 min 0 W/m 3,4 C 7,2 C 0,0 km/h (0 Bft)
28/02/2012 22:50 6,9 C 77 % 1022,9 hPa 0,0 mm 2,5 km/h (1 Bft) N-NE 22 0 min 0 W/m 3,2 C 6,9 C 4,3 km/h (1 Bft)
28/02/2012 23:00 6,8 C 77 % 1022,9 hPa 0,0 mm 1,1 km/h (1 Bft) N-NE 22 0 min 0 W/m 3,1 C 6,8 C 4,3 km/h (1 Bft)
28/02/2012 23:10 6,6 C 77 % 1022,9 hPa 0,0 mm 0,0 km/h (0 Bft) N-NE 22 0 min 0 W/m 2,9 C 6,6 C 0,0 km/h (0 Bft)
28/02/2012 23:20 6,3 C 77 % 1023,0 hPa 0,0 mm 0,0 km/h (0 Bft) NE 45 0 min 0 W/m 2,6 C 6,3 C 0,0 km/h (0 Bft)
28/02/2012 23:30 6,0 C 78 % 1022,8 hPa 0,0 mm 1,4 km/h (1 Bft) N-NE 22 0 min 0 W/m 2,5 C 6,0 C 1,4 km/h (1 Bft)
28/02/2012 23:40 5,9 C 79 % 1022,9 hPa 0,0 mm 0,0 km/h (0 Bft) NE 45 0 min 0 W/m 2,5 C 5,9 C 0,0 km/h (0 Bft)
28/02/2012 23:50 5,7 C 79 % 1022,9 hPa 0,0 mm 0,4 km/h (0 Bft) N-NE 22 0 min 0 W/m 2,3 C 5,7 C 2,9 km/h (1 Bft)
_ Min-Heure 07:40 15:20 20:40 - 23:40 - - - - 04:20 07:40 23:40
Minimum _ -1,4 C 55 % 1022,5 hPa - 0,0 km/h (0 Bft) - - - - -3,0 C -1,4 C 0,0 km/h (0 Bft)
_ Max-Heure 14:50 09:00 12:50 23:50 17:40 - - 18:30 23:50 13:00 14:50 17:40
Maximum _ 16,2 C 92 % 1025,4 hPa 0,0 mm 12,6 km/h
N (3 Bft)
- - 2 min 0 W/m 7,3 C 16,2 C 19,4 km/h
N (3 Bft)
Moyenne _ 7,0 C 75 % 1024,1 hPa #0,0 mm 2,3 km/h (1 Bft) N-NE - #2:10 h 0 W/m 2,5 C 7,0 C 3,7 km/h (1 Bft)
Saint Bonnet de Bellac- Haute Vienne - France